Location: Powder Track
(41.8531°N, 72.3584°W)
Time: 23:49:29
(UTC+00:00)

Vanguard 2 Rocket - Pass Details

Date: 08 August 2021
Orbit: 556 x 3324 km, 32.9° (Epoch: 22 September)

Event Time Altitude Azimuth Distance (km) Brightness Sun altitude
Rises 07:23:19 0° 206° (SSW) 5,311 - -22.8°
Reaches altitude 10° 07:29:58 10° 181° (S) 3,576 - -22.0°
Exits shadow 07:32:11 12° 167° (SSE) 3,164 9.3 -21.7°
Maximum altitude 07:33:07 12° 160° (SSE) 3,042 9.3 -21.6°
Drops below altitude 10° 07:35:47 10° 137° (SE) 2,914 9.4 -21.3°
Sets 07:39:52 0° 107° (ESE) 3,417 10.2 -20.8°
